Location: Biltmore Gardens
(41.6070°N, 83.4666°W)
Time: 15:16:41
(UTC+00:00)

IRIS - Pass Details

Date: 14 July 2020
Orbit: 278 x 2721 km, 41.2° (Epoch: 12 August)

Event Time Altitude Azimuth Distance (km) Brightness Sun altitude
Rises 01:45:00 0° 277° (W) 3,422 10.0 -6.7°
Reaches altitude 10° 01:48:09 10° 276° (W) 2,100 8.8 -7.2°
Maximum altitude 01:52:39 71° 192° (SSW) 487 4.5 -7.8°
Enters shadow 01:55:27 10° 108° (ESE) 1,323 6.2 -8.2°
